Tracking 27079 objects as of 23-Mar-2023
HD Live streaming from Space Station
objects crossing your sky now

STARLINK-3513

Track STARLINK-3513 now!
10-day predictions
STARLINK-3513 is classified as:


NORAD ID: 51756
Int'l Code: 2022-016AU
Perigee: 546.0 km
Apogee: 547.8 km
Inclination: 53.2 °
Period: 95.4 minutes
Semi major axis: 6917 km
RCS: Unknown
Launch date: February 21, 2022
Source: United States (US)
Launch site: AIR FORCE EASTERN TEST RANGE (AFETR)
Your satellite tracking list
Your tracking list is empty




NASA's NSSDC Master Catalog

Two Line Element Set (TLE):
1 51756U 22016AU  23081.57267352  .00004368  00000-0  29231-3 0  9997
2 51756  53.2161 131.4265 0001305 109.0766 251.0368 15.08847844 60194
Source of the keplerian elements: AFSPC